STARLINK-11431, 62890

Orbit data source: Space-Track

STARLINK-11431, 62890 is a payload satellite owned by SpaceX/Seattle (US) in LEO that was launched on Tue, 04 Feb 2025 UTC via an FALCON 9 launch vehicle from the Air Force Eastern Test Range (AFETR). Payload-class satellites include a variety of spacecraft equipped with specific instruments for various scientific and technological missions. These include communications satellites like Starlink; space stations such as the ISS; scientific satellites like the Hubble; Earth observation satellites from companies like Planet Labs, Umbra, and HawkEye 360; GPS; miniature CubeSats for education and research; and military/defense satellites.

Loading next visibility...
Identifier
62890, 2025-024M
Orbit
LEO
Last TLE update
16 hours ago
Origin
Manufacturer
SpaceX/Seattle
Mission
Operational Commercial Communications
Bus & Motor
STARLINK V2M, Unknown motor
Mass
730 kg wet, ~700 kg dry
Launch date (UTC)
2025-02-04 (5 months ago)
Launch vehicle
FALCON 9
Launch site
Air Force Eastern Test Range (AFETR)
Object type
Payload
Rocket body
Debris
Shape & HBR
Box + 2 Pan, 29 m
Radar Cross Section
36.964 m², Large (>1 m²)

Expand to show TLE details & history

TLE from 16 hours ago
0 STARLINK-11431
1 62890U 25024M   25183.18475143  .00204719  00000-0  15537-2 0  9996
2 62890  42.9981 251.8640 0001267 195.4749 164.6080 15.70935481 24061
Epoch: 2025-07-02T04:26Z
TLE epoch observation values (Epoch: 2025-07-02T04:26:02.523Z)
Latitude
-0.00003°
Longitude
-95.11603°
Altitude
356.816 km
Speed
7.697 km/s
True Right ascension
16h 47m 27s
True Declination
0° 00' 00"
Sunlit
Object was in full shadow at epoch
Visualization orbit readout
Latitude
27.46384°
Longitude
47.24059°
Altitude
355.282 km
Speed
7.701 km/s
Apparent Right ascension
23h 33m 02s
Apparent Declination
-7° 30' 49"
Sunlit
Object is in daylight
Visualization observer readout
Local Sidereal Time
08:00:29
Azimuth
289.529° WNW
Elevation
-32.689°
Doppler factor
1
Orbital elements
Apogee altitude
359.058 km
Perigee altitude
357.351 km
Semi-major axis
6,736.341 km
Eccentricity
0.00013
Inclination
42.9981°
RAAN
251.864°
Arg. of periapsis
195.4749°
True anomaly
Unknown
Mean anomaly
164.608°
Eccentric anomaly
Unknown
Mean motion
3.92561 °/min
Orbital period
91.71 mins
BSTAR
0.0015537
Loading maneuver chart data...
Loading SW <> Apogee altitude chart data...
Loading historical data...
Loading historical data...
Loading historical data...
Loading historical data...
Loading historical data...
Loading historical data...
Loading historical data...

STARLINK-11431 Visibility forecast

Observer location: undefined°, undefined°

Span
Click to sort rows by Start time (UTC) header in descending order
Start Az.
Max El. time (UTC)
Max El. Az.
Max El.
End time (UTC)
End Az.
5 mins2025-07-03 08:07:28.790Z228.757° WSW2025-07-03 08:09:28.790Z182.167° SSW35.547°2025-07-03 08:12:28.790Z79.895° E
4 mins2025-07-03 09:44:28.790Z286.867° WNW2025-07-03 09:45:28.790Z319.053° NNW34.802°2025-07-03 09:48:28.790Z67.494° ENE
4 mins2025-07-03 11:20:28.790Z298.892° NW2025-07-03 11:22:28.790Z31.276° NE37.095°2025-07-03 11:24:28.790Z84.168° E
4 mins2025-07-03 12:56:28.790Z271.263° WNW2025-07-03 12:58:28.790Z192.237° SSW34.131°2025-07-03 13:00:28.790Z136.44° SSE
|